Time,TemperatureF,DewpointF,PressureIn,WindDirection,WindDirectionDegrees,WindSpeedMPH,WindSpeedGustMPH,Humidity,HourlyPrecipIn,Conditions,Clouds,dailyrainin,SoftwareType,DateUTC
2013-02-15 00:02:00,30.0,15.0,-100.00,WNW,300,2.0,6.0,53,0.00,,,0.00,,2013-02-15 05:02:00,
2013-02-15 00:12:00,30.0,15.0,-100.00,WNW,300,2.0,6.0,53,0.00,,,0.00,,2013-02-15 05:12:00,
2013-02-15 00:22:00,30.0,15.0,-100.00,WNW,300,2.0,6.0,53,0.00,,,0.00,,2013-02-15 05:22:00,
2013-02-15 00:32:00,30.0,15.0,-100.00,WNW,300,2.0,6.0,53,0.00,,,0.00,,2013-02-15 05:32:00,
2013-02-15 00:40:00,31.0,16.0,-100.00,WNW,293,2.0,6.0,54,0.00,,,0.00,,2013-02-15 05:40:00,
2013-02-15 01:02:00,31.0,16.0,-100.00,WNW,293,2.0,6.0,54,0.00,,,0.00,,2013-02-15 06:02:00,
2013-02-15 01:11:00,31.0,16.0,-100.00,WNW,293,2.0,6.0,54,0.00,,,0.00,,2013-02-15 06:11:00,
2013-02-15 01:22:00,31.0,16.0,-100.00,WNW,293,2.0,6.0,54,0.00,,,0.00,,2013-02-15 06:22:00,
2013-02-15 01:31:00,31.0,16.0,-100.00,WNW,293,2.0,6.0,54,0.00,,,0.00,,2013-02-15 06:31:00,
2013-02-15 01:40:00,29.0,14.0,-100.00,NW,311,1.0,5.0,53,0.00,,,0.00,,2013-02-15 06:40:00,
2013-02-15 02:01:00,29.0,14.0,-100.00,NW,311,1.0,5.0,53,0.00,,,0.00,,2013-02-15 07:01:00,
2013-02-15 02:11:00,29.0,14.0,-100.00,NW,311,1.0,5.0,53,0.00,,,0.00,,2013-02-15 07:11:00,
2013-02-15 02:21:00,29.0,14.0,-100.00,NW,311,1.0,5.0,53,0.00,,,0.00,,2013-02-15 07:21:00,
2013-02-15 02:31:00,29.0,14.0,-100.00,NW,311,1.0,5.0,53,0.00,,,0.00,,2013-02-15 07:31:00,
2013-02-15 02:40:00,26.0,14.0,-100.00,WNW,290,1.0,3.0,59,0.00,,,0.00,,2013-02-15 07:40:00,
2013-02-15 03:01:00,26.0,14.0,-100.00,WNW,290,1.0,3.0,59,0.00,,,0.00,,2013-02-15 08:01:00,
2013-02-15 03:11:00,26.0,14.0,-100.00,WNW,290,1.0,3.0,59,0.00,,,0.00,,2013-02-15 08:11:00,
2013-02-15 03:21:00,26.0,14.0,-100.00,WNW,290,1.0,3.0,59,0.00,,,0.00,,2013-02-15 08:21:00,
2013-02-15 03:32:00,26.0,14.0,-100.00,WNW,290,1.0,3.0,59,0.00,,,0.00,,2013-02-15 08:32:00,
2013-02-15 03:40:00,29.0,19.0,-100.00,South,180,6.0,12.0,67,0.00,,,0.00,,2013-02-15 08:40:00,
2013-02-15 04:02:00,29.0,19.0,-100.00,South,180,6.0,12.0,67,0.00,,,0.00,,2013-02-15 09:02:00,
2013-02-15 04:12:00,29.0,19.0,-100.00,South,180,6.0,12.0,67,0.00,,,0.00,,2013-02-15 09:12:00,
2013-02-15 04:21:00,29.0,19.0,-100.00,South,180,6.0,12.0,67,0.00,,,0.00,,2013-02-15 09:21:00,
2013-02-15 04:32:00,29.0,19.0,-100.00,South,180,6.0,12.0,67,0.00,,,0.00,,2013-02-15 09:32:00,
2013-02-15 04:40:00,26.0,19.0,-100.00,WNW,285,1.0,10.0,73,0.00,,,0.00,,2013-02-15 09:40:00,
2013-02-15 05:01:00,26.0,19.0,-100.00,WNW,285,1.0,10.0,73,0.00,,,0.00,,2013-02-15 10:01:00,
2013-02-15 05:11:00,26.0,19.0,-100.00,WNW,285,1.0,10.0,73,0.00,,,0.00,,2013-02-15 10:11:00,
2013-02-15 05:21:00,26.0,19.0,-100.00,WNW,285,1.0,10.0,73,0.00,,,0.00,,2013-02-15 10:21:00,
2013-02-15 05:31:00,26.0,19.0,-100.00,WNW,285,1.0,10.0,73,0.00,,,0.00,,2013-02-15 10:31:00,
2013-02-15 05:40:00,25.0,19.0,-100.00,SSW,213,2.0,7.0,79,0.00,,,0.00,,2013-02-15 10:40:00,
2013-02-15 06:01:00,25.0,19.0,-100.00,SSW,213,2.0,7.0,79,0.00,,,0.00,,2013-02-15 11:01:00,
2013-02-15 06:11:00,25.0,19.0,-100.00,SSW,213,2.0,7.0,79,0.00,,,0.00,,2013-02-15 11:11:00,
2013-02-15 06:23:00,25.0,19.0,-100.00,SSW,213,2.0,7.0,79,0.00,,,0.00,,2013-02-15 11:23:00,
2013-02-15 06:32:00,25.0,19.0,-100.00,SSW,213,2.0,7.0,79,0.00,,,0.00,,2013-02-15 11:32:00,
2013-02-15 06:40:00,24.0,19.0,-100.00,West,263,2.0,3.0,82,0.00,,,0.00,,2013-02-15 11:40:00,
2013-02-15 07:02:00,24.0,19.0,-100.00,West,263,2.0,3.0,82,0.00,,,0.00,,2013-02-15 12:02:00,
2013-02-15 07:11:00,24.0,19.0,-100.00,West,263,2.0,3.0,82,0.00,,,0.00,,2013-02-15 12:11:00,
2013-02-15 07:21:00,24.0,19.0,-100.00,West,263,2.0,3.0,82,0.00,,,0.00,,2013-02-15 12:21:00,
2013-02-15 07:32:00,24.0,19.0,-100.00,West,263,2.0,3.0,82,0.00,,,0.00,,2013-02-15 12:32:00,
2013-02-15 07:40:00,23.0,19.0,-100.00,West,261,1.0,4.0,85,0.00,,,0.00,,2013-02-15 12:40:00,
2013-02-15 08:02:00,23.0,19.0,-100.00,West,261,1.0,4.0,85,0.00,,,0.00,,2013-02-15 13:02:00,
2013-02-15 08:11:00,23.0,19.0,-100.00,West,261,1.0,4.0,85,0.00,,,0.00,,2013-02-15 13:11:00,
2013-02-15 08:22:00,23.0,19.0,-100.00,West,261,1.0,4.0,85,0.00,,,0.00,,2013-02-15 13:22:00,
2013-02-15 08:32:00,23.0,19.0,-100.00,West,261,1.0,4.0,85,0.00,,,0.00,,2013-02-15 13:32:00,
2013-02-15 08:40:00,20.0,16.0,-100.00,WNW,290,1.0,2.0,83,0.00,,,0.00,,2013-02-15 13:40:00,
2013-02-15 09:01:00,20.0,16.0,-100.00,WNW,290,1.0,2.0,83,0.00,,,0.00,,2013-02-15 14:01:00,
2013-02-15 09:12:00,20.0,16.0,-100.00,WNW,290,1.0,2.0,83,0.00,,,0.00,,2013-02-15 14:12:00,
2013-02-15 09:21:00,20.0,16.0,-100.00,WNW,290,1.0,2.0,83,0.00,,,0.00,,2013-02-15 14:21:00,
2013-02-15 09:32:00,20.0,16.0,-100.00,WNW,290,1.0,2.0,83,0.00,,,0.00,,2013-02-15 14:32:00,
2013-02-15 09:40:00,24.0,19.0,-100.00,NW,312,0.0,2.0,80,0.00,,,0.00,,2013-02-15 14:40:00,
2013-02-15 10:01:00,24.0,19.0,-100.00,NW,312,0.0,2.0,80,0.00,,,0.00,,2013-02-15 15:01:00,
2013-02-15 10:11:00,24.0,19.0,-100.00,NW,312,0.0,2.0,80,0.00,,,0.00,,2013-02-15 15:11:00,
2013-02-15 10:21:00,24.0,19.0,-100.00,NW,312,0.0,2.0,80,0.00,,,0.00,,2013-02-15 15:21:00,
2013-02-15 10:32:00,24.0,19.0,-100.00,NW,312,0.0,2.0,80,0.00,,,0.00,,2013-02-15 15:32:00,
2013-02-15 10:40:00,32.0,22.0,-100.00,ESE,107,2.0,4.0,66,0.00,,,0.00,,2013-02-15 15:40:00,
2013-02-15 11:02:00,32.0,22.0,-100.00,ESE,107,2.0,4.0,66,0.00,,,0.00,,2013-02-15 16:02:00,
2013-02-15 11:11:00,32.0,22.0,-100.00,ESE,107,2.0,4.0,66,0.00,,,0.00,,2013-02-15 16:11:00,
2013-02-15 11:22:00,32.0,22.0,-100.00,ESE,107,2.0,4.0,66,0.00,,,0.00,,2013-02-15 16:22:00,
2013-02-15 11:32:00,32.0,22.0,-100.00,ESE,107,2.0,4.0,66,0.00,,,0.00,,2013-02-15 16:32:00,
2013-02-15 11:40:00,34.0,19.0,-100.00,NE,47,5.0,10.0,53,0.00,,,0.00,,2013-02-15 16:40:00,
2013-02-15 12:01:00,34.0,19.0,-100.00,NE,47,5.0,10.0,53,0.00,,,0.00,,2013-02-15 17:01:00,
2013-02-15 12:11:00,34.0,19.0,-100.00,NE,47,5.0,10.0,53,0.00,,,0.00,,2013-02-15 17:11:00,
2013-02-15 12:21:00,34.0,19.0,-100.00,NE,47,5.0,10.0,53,0.00,,,0.00,,2013-02-15 17:21:00,
2013-02-15 12:32:00,34.0,19.0,-100.00,NE,47,5.0,10.0,53,0.00,,,0.00,,2013-02-15 17:32:00,
2013-02-15 12:40:00,36.0,18.0,-100.00,NNW,347,5.0,10.0,48,0.00,,,0.00,,2013-02-15 17:40:00,
2013-02-15 13:01:00,36.0,18.0,-100.00,NNW,347,5.0,10.0,48,0.00,,,0.00,,2013-02-15 18:01:00,
2013-02-15 13:11:00,36.0,18.0,-100.00,NNW,347,5.0,10.0,48,0.00,,,0.00,,2013-02-15 18:11:00,
2013-02-15 13:21:00,36.0,18.0,-100.00,NNW,347,5.0,10.0,48,0.00,,,0.00,,2013-02-15 18:21:00,
2013-02-15 13:32:00,36.0,18.0,-100.00,NNW,347,5.0,10.0,48,0.00,,,0.00,,2013-02-15 18:32:00,
2013-02-15 13:40:00,40.0,13.0,-100.00,North,10,5.0,14.0,33,0.00,,,0.00,,2013-02-15 18:40:00,
2013-02-15 14:01:00,40.0,13.0,-100.00,North,10,5.0,14.0,33,0.00,,,0.00,,2013-02-15 19:01:00,
2013-02-15 14:11:00,40.0,13.0,-100.00,North,10,5.0,14.0,33,0.00,,,0.00,,2013-02-15 19:11:00,
2013-02-15 14:22:00,40.0,13.0,-100.00,North,10,5.0,14.0,33,0.00,,,0.00,,2013-02-15 19:22:00,
2013-02-15 14:32:00,40.0,13.0,-100.00,North,10,5.0,14.0,33,0.00,,,0.00,,2013-02-15 19:32:00,
2013-02-15 14:40:00,43.0,4.0,-100.00,NNW,333,9.0,17.0,19,0.00,,,0.00,,2013-02-15 19:40:00,
2013-02-15 15:01:00,43.0,4.0,-100.00,NNW,333,9.0,17.0,19,0.00,,,0.00,,2013-02-15 20:01:00,
2013-02-15 15:11:00,43.0,4.0,-100.00,NNW,333,9.0,17.0,19,0.00,,,0.00,,2013-02-15 20:11:00,
2013-02-15 15:21:00,43.0,4.0,-100.00,NNW,333,9.0,17.0,19,0.00,,,0.00,,2013-02-15 20:21:00,
2013-02-15 15:32:00,43.0,4.0,-100.00,NNW,333,9.0,17.0,19,0.00,,,0.00,,2013-02-15 20:32:00,
2013-02-15 15:40:00,43.0,1.0,-100.00,NNW,337,11.0,20.0,17,0.00,,,0.00,,2013-02-15 20:40:00,
2013-02-15 16:02:00,43.0,1.0,-100.00,NNW,337,11.0,20.0,17,0.00,,,0.00,,2013-02-15 21:02:00,
2013-02-15 16:11:00,43.0,1.0,-100.00,NNW,337,11.0,20.0,17,0.00,,,0.00,,2013-02-15 21:11:00,
2013-02-15 16:21:00,43.0,1.0,-100.00,NNW,337,11.0,20.0,17,0.00,,,0.00,,2013-02-15 21:21:00,
2013-02-15 16:31:00,43.0,1.0,-100.00,NNW,337,11.0,20.0,17,0.00,,,0.00,,2013-02-15 21:31:00,
2013-02-15 16:40:00,43.0,1.0,-100.00,NW,321,10.0,21.0,17,0.00,,,0.00,,2013-02-15 21:40:00,
2013-02-15 17:02:00,43.0,1.0,-100.00,NW,321,10.0,21.0,17,0.00,,,0.00,,2013-02-15 22:02:00,
2013-02-15 17:11:00,43.0,1.0,-100.00,NW,321,10.0,21.0,17,0.00,,,0.00,,2013-02-15 22:11:00,
2013-02-15 17:22:00,43.0,1.0,-100.00,NW,321,10.0,21.0,17,0.00,,,0.00,,2013-02-15 22:22:00,
2013-02-15 17:31:00,43.0,1.0,-100.00,NW,321,10.0,21.0,17,0.00,,,0.00,,2013-02-15 22:31:00,
2013-02-15 17:40:00,43.0,2.0,-100.00,NNW,336,8.0,16.0,18,0.00,,,0.00,,2013-02-15 22:40:00,
2013-02-15 18:02:00,43.0,2.0,-100.00,NNW,336,8.0,16.0,18,0.00,,,0.00,,2013-02-15 23:02:00,
2013-02-15 18:11:00,43.0,2.0,-100.00,NNW,336,8.0,16.0,18,0.00,,,0.00,,2013-02-15 23:11:00,
2013-02-15 18:21:00,43.0,2.0,-100.00,NNW,336,8.0,16.0,18,0.00,,,0.00,,2013-02-15 23:21:00,
2013-02-15 18:31:00,43.0,2.0,-100.00,NNW,336,8.0,16.0,18,0.00,,,0.00,,2013-02-15 23:31:00,
2013-02-15 18:40:00,43.0,2.0,-100.00,NNW,334,6.0,16.0,18,0.00,,,0.00,,2013-02-15 23:40:00,
2013-02-15 19:02:00,43.0,2.0,-100.00,NNW,334,6.0,16.0,18,0.00,,,0.00,,2013-02-16 00:02:00,
2013-02-15 19:11:00,43.0,2.0,-100.00,NNW,334,6.0,16.0,18,0.00,,,0.00,,2013-02-16 00:11:00,
2013-02-15 19:21:00,43.0,2.0,-100.00,NNW,334,6.0,16.0,18,0.00,,,0.00,,2013-02-16 00:21:00,
2013-02-15 19:32:00,43.0,2.0,-100.00,NNW,334,6.0,16.0,18,0.00,,,0.00,,2013-02-16 00:32:00,
2013-02-15 19:40:00,38.0,1.0,-100.00,NNW,334,5.0,15.0,20,0.00,,,0.00,,2013-02-16 00:40:00,
2013-02-15 20:02:00,38.0,1.0,-100.00,NNW,334,5.0,15.0,20,0.00,,,0.00,,2013-02-16 01:02:00,
2013-02-15 20:11:00,38.0,1.0,-100.00,NNW,334,5.0,15.0,20,0.00,,,0.00,,2013-02-16 01:11:00,
2013-02-15 20:21:00,38.0,1.0,-100.00,NNW,334,5.0,15.0,20,0.00,,,0.00,,2013-02-16 01:21:00,
2013-02-15 20:32:00,38.0,1.0,-100.00,NNW,334,5.0,15.0,20,0.00,,,0.00,,2013-02-16 01:32:00,
2013-02-15 20:40:00,36.0,5.0,-100.00,NW,314,5.0,10.0,27,0.00,,,0.00,,2013-02-16 01:40:00,
2013-02-15 21:01:00,36.0,5.0,-100.00,NW,314,5.0,10.0,27,0.00,,,0.00,,2013-02-16 02:01:00,
2013-02-15 21:11:00,36.0,5.0,-100.00,NW,314,5.0,10.0,27,0.00,,,0.00,,2013-02-16 02:11:00,
2013-02-15 21:21:00,36.0,5.0,-100.00,NW,314,5.0,10.0,27,0.00,,,0.00,,2013-02-16 02:21:00,
2013-02-15 21:32:00,36.0,5.0,-100.00,NW,314,5.0,10.0,27,0.00,,,0.00,,2013-02-16 02:32:00,
2013-02-15 21:40:00,36.0,6.0,-100.00,NW,320,5.0,12.0,28,0.00,,,0.00,,2013-02-16 02:40:00,
2013-02-15 22:02:00,36.0,6.0,-100.00,NW,320,5.0,12.0,28,0.00,,,0.00,,2013-02-16 03:02:00,
2013-02-15 22:11:00,36.0,6.0,-100.00,NW,320,5.0,12.0,28,0.00,,,0.00,,2013-02-16 03:11:00,
2013-02-15 22:21:00,36.0,6.0,-100.00,NW,320,5.0,12.0,28,0.00,,,0.00,,2013-02-16 03:21:00,
2013-02-15 22:32:00,36.0,6.0,-100.00,NW,320,5.0,12.0,28,0.00,,,0.00,,2013-02-16 03:32:00,
2013-02-15 22:40:00,31.0,0.0,-100.00,North,352,4.0,9.0,26,0.00,,,0.00,,2013-02-16 03:40:00,
2013-02-15 23:01:00,31.0,0.0,-100.00,North,352,4.0,9.0,26,0.00,,,0.00,,2013-02-16 04:01:00,
2013-02-15 23:11:00,31.0,0.0,-100.00,North,352,4.0,9.0,26,0.00,,,0.00,,2013-02-16 04:11:00,
2013-02-15 23:21:00,31.0,0.0,-100.00,North,352,4.0,9.0,26,0.00,,,0.00,,2013-02-16 04:21:00,
2013-02-15 23:32:00,31.0,0.0,-100.00,North,352,4.0,9.0,26,0.00,,,0.00,,2013-02-16 04:32:00,
2013-02-15 23:40:00,30.0,2.0,-100.00,NNW,338,5.0,12.0,29,0.00,,,0.00,,2013-02-16 04:40:00,